[[{"header":{"parameterUnit":"m.s-1","parameterCategory":1,"la1":30.2991,"la2":30.254,"lo1":-89.0895,"lo2":-89.0444,"dy":0.0017,"dx":0.0017,"nx":28,"ny":28,"refTime":"2025-03-23T09:00:00:Z","depth":0,"parameterNumber":2,"parameterNumberName":"U-component_of_WINDS"},"data":[0,0,0,0,0,0,0,0,0,0,0,0,0,0,0,0,0,0,0,0,0,0,0,0,0,0,0,0,0,0,0,0,0,0,0,0,0,0,0,0,0,0,0,0,0,0,0,0,0,0,0,0,0,0,0,0,0,0,0.5886,0.5887,0,0.5942,0.5943,0.5943,0.5949,0.5948,0.5947,0.5947,0.6006,0.6008,0.6011,0,0,0,0,0,0,0,0,0,0,0,0,0,0.5786,0.5788,0.5886,0.5887,0.5888,0.5942,0.5943,0.5943,0.5949,0.5948,0.5947,0.5947,0.6006,0.6008,0.6011,0,0,0,0,0,0,0,0,0,0,0,0,0,0.5835,0.5789,0.5886,0.5897,0.5898,0.5942,0.5943,0.5944,0.5949,0.5948,0.5947,0.5946,0.6005,0.6008,0.6011,0.6049,0,0,0.6021,0.6022,0,0,0,0,0,0,0,0,0.5832,0.5838,0.5894,0.5896,0.5898,0.5937,0.5929,0.5979,0.5949,0.593,0.5947,0.5946,0.5984,0.5989,0.6002,0.6051,0.6054,0.6021,0.6023,0.6024,0.6025,0,0,0,0,0,0,0,0.5829,0.5836,0.5908,0.5895,0.5897,0.5899,0.5905,0.5939,0.5961,0.5931,0.5932,0.5938,0.5985,0.5999,0.6003,0.6055,0.6021,0.6024,0.6026,0.6027,0.6139,0.614,0,0,0,0,0,0,0.5823,0.5833,0.5907,0.591,0.5862,0.5902,0.5909,0.5926,0.5961,0.5966,0.5939,0.5938,0.5993,0.5999,0.6005,0.6052,0.6024,0.6027,0.6029,0.6138,0.6139,0.614,0,0,0,0,0,0,0.5821,0.583,0.5904,0.5872,0.5881,0.5905,0.5924,0.5927,0.5941,0.5967,0.5971,0.5948,0.5993,0.6001,0.6038,0.6054,0.6029,0.6032,0.6137,0.6138,0.614,0.6146,0,0,0,0,0,0,0.5818,0.5829,0.5843,0.5872,0.5883,0.5935,0.5925,0.5929,0.5946,0.5946,0.5977,0.5981,0.5993,0.6033,0.6041,0.6058,0.6034,0.6135,0.6137,0.6139,0.6144,0.6147,0.615,0,0,0,0,0,0.5814,0.5843,0.5843,0.5852,0.5901,0.5936,0.5943,0.5955,0.5947,0.5962,0.5979,0.598,0.6051,0.6037,0.6046,0.6064,0.6134,0.6137,0.6139,0.6143,0.6147,0.615,0,0,0,0,0,0,0.5815,0.5847,0.5848,0.5886,0.5908,0.5937,0.5956,0.5959,0.5984,0.5983,0.5998,0.6005,0.6042,0.6057,0.604,0.6103,0.6092,0.6096,0.6092,0.6096,0.6098,0.6095,0.6037,0,0,0,0,0,0.582,0.5845,0.5871,0.5903,0.5914,0.5933,0.5949,0.5956,0.598,0.599,0.6009,0.6033,0.6061,0.6079,0.6106,0.6146,0.6154,0.6163,0.6166,0.6168,0.6172,0.6196,0.6201,0.6148,0.6148,0.6148,0,0,0.583,0.585,0.5865,0.5903,0.5921,0.5948,0.5941,0.5969,0.5989,0.5994,0.6031,0.6046,0.6074,0.6113,0.6131,0.6126,0.6188,0.6171,0.6173,0.6176,0.6199,0.6204,0.6208,0.615,0.6149,0.6149,0,0,0.5861,0.5879,0.5907,0.5925,0.5953,0.5965,0.5972,0.6,0.601,0.6047,0.6051,0.6076,0.6123,0.6143,0.6159,0.6198,0.6201,0.6206,0.6222,0.6244,0.6249,0.6252,0.6267,0.6272,0.621,0.621,0.621,0,0.587,0.591,0.5921,0.595,0.5967,0.5972,0.6001,0.6018,0.6053,0.6066,0.6059,0.6119,0.6138,0.6182,0.6192,0.6204,0.6213,0.6203,0.6247,0.6251,0.6254,0.6269,0.6274,0.621,0.621,0.621,0.621,0,0.592,0.5948,0.5968,0.6001,0.602,0.6049,0.6065,0.6083,0.6089,0.6102,0.614,0.6163,0.6194,0.6205,0.6211,0.625,0.6247,0.6244,0.6233,0.626,0.6274,0.6279,0.6211,0.6211,0.6211,0.6211,0,0,0.5955,0.5994,0.6001,0.6016,0.6046,0.6068,0.6098,0.6128,0.6144,0.6168,0.6193,0.6233,0.623,0.6249,0.6257,0.6276,0.6307,0.6271,0.6272,0.6278,0.6353,0.6356,0.6362,0.6309,0.631,0.6311,0.6351,0,0.5991,0.6042,0.6053,0.6098,0.6124,0.6129,0.6155,0.6177,0.619,0.6215,0.6229,0.6258,0.6251,0.6263,0.6282,0.6299,0.6323,0.6296,0.6334,0.6335,0.6328,0.6369,0.6372,0.6409,0.6356,0.6357,0.6358,0,0.604,0.6064,0.6112,0.6139,0.615,0.6173,0.6202,0.6225,0.625,0.6259,0.6279,0.6285,0.6317,0.6304,0.6348,0.633,0.6346,0.6357,0.6358,0.6363,0.6349,0.6376,0.6421,0.6427,0.6366,0.6366,0.6365,0,0.6062,0.6106,0.6141,0.6153,0.6186,0.6202,0.6216,0.624,0.6258,0.6284,0.6296,0.6325,0.6341,0.6364,0.6378,0.6367,0.6421,0.6409,0.643,0.643,0.6442,0.6441,0.6492,0.645,0.645,0.645,0.645,0,0.6101,0.613,0.6151,0.6172,0.6205,0.6217,0.625,0.6264,0.6286,0.6311,0.6316,0.634,0.6357,0.6382,0.6394,0.6429,0.6436,0.6445,0.6447,0.6445,0.6444,0.6456,0.6454,0.6452,0.6451,0.6451,0.6451,0,0.6131,0.6146,0.6184,0.6211,0.6219,0.6242,0.6266,0.6287,0.63,0.6332,0.634,0.6361,0.6392,0.6408,0.6446,0.6454,0.6494,0.6495,0.6485,0.6487,0.6507,0.6505,0.6568,0.6577,0.6529,0.6529,0.6529,0,0.6156,0.6179,0.6208,0.6225,0.624,0.6266,0.6284,0.6298,0.6316,0.6347,0.6365,0.6395,0.6421,0.647,0.6489,0.6519,0.6521,0.6541,0.6526,0.6522,0.6523,0.6522,0.6524,0.6544,0.6544,0.6545,0.6545,0,0.6199,0.6205,0.6231,0.6259,0.628,0.6303,0.6326,0.6339,0.6356,0.6377,0.6408,0.6428,0.6467,0.6498,0.6529,0.6545,0.6548,0.6549,0.6556,0.6554,0.6548,0.6553,0.6494,0.6548,0.6548,0.6548,0.6548,0.6547,0.6228,0.6248,0.6273,0.6301,0.6319,0.634,0.6362,0.6377,0.6403,0.6436,0.6442,0.6475,0.6501,0.6543,0.6559,0.6586,0.6582,0.6591,0.6594,0.6596,0.6598,0.6543,0.6591,0.6591,0.6591,0.6591,0.6591,0,0.6272,0.6288,0.6314,0.6345,0.6367,0.6368,0.6393,0.6412,0.6441,0.6463,0.6488,0.6524,0.6555,0.6576,0.6607,0.6624,0.6627,0.6632,0.6631,0.6635,0.6599,0.6591,0.6629,0.6629,0.6629,0.6629,0.6629,0.6629,0.6298,0.6332,0.6342,0.6386,0.6401,0.6434,0.6448,0.6468,0.6486,0.6526,0.6551,0.6564,0.6587,0.6619,0.6647,0.6653,0.6664,0.667,0.6676,0.6642,0.6638,0.6634,0.6626,0.6672,0.6672,0.671,0.671,0.6711]},{"header":{"parameterUnit":"m.s-1","parameterCategory":1,"la1":30.2991,"la2":30.254,"lo1":-89.0895,"lo2":-89.0444,"dy":0.0017,"dx":0.0017,"nx":28,"ny":28,"refTime":"2025-03-23T09:00:00:Z","depth":0,"parameterNumber":3,"parameterNumberName":"V-component_of_WINDS"},"data":[0,0,0,0,0,0,0,0,0,0,0,0,0,0,0,0,0,0,0,0,0,0,0,0,0,0,0,0,0,0,0,0,0,0,0,0,0,0,0,0,0,0,0,0,0,0,0,0,0,0,0,0,0,0,0,0,0,0,2.8286,2.8287,0,2.836,2.836,2.8361,2.8358,2.8357,2.8356,2.8355,2.8427,2.843,2.8433,0,0,0,0,0,0,0,0,0,0,0,0,0,2.814,2.8142,2.8286,2.8287,2.8288,2.836,2.8361,2.8362,2.8358,2.8357,2.8356,2.8354,2.8426,2.8429,2.8433,0,0,0,0,0,0,0,0,0,0,0,0,0,2.8207,2.8143,2.8286,2.8295,2.8296,2.8359,2.8361,2.8362,2.8358,2.8357,2.8355,2.8354,2.8425,2.8429,2.8433,2.8491,0,0,2.8447,2.8449,0,0,0,0,0,0,0,0,2.8203,2.8213,2.8293,2.8294,2.8296,2.8348,2.8335,2.8405,2.8359,2.8335,2.8355,2.8353,2.8402,2.8408,2.8425,2.8494,2.8498,2.8447,2.845,2.8451,2.8453,0,0,0,0,0,0,0,2.8199,2.8209,2.8315,2.8294,2.8296,2.8294,2.8302,2.8349,2.8376,2.8337,2.8337,2.8346,2.8402,2.8421,2.8427,2.8499,2.8447,2.8451,2.8453,2.8455,2.8621,2.8622,0,0,0,0,0,0,2.8192,2.8205,2.8313,2.8317,2.8245,2.8298,2.8307,2.8333,2.8375,2.8381,2.8347,2.8345,2.8414,2.8422,2.8429,2.8501,2.8451,2.8456,2.8458,2.8619,2.8621,2.8623,0,0,0,0,0,0,2.8189,2.8202,2.831,2.8261,2.8275,2.8302,2.8332,2.8335,2.8354,2.8383,2.8388,2.8361,2.8413,2.8423,2.8476,2.8504,2.8457,2.8461,2.8617,2.862,2.8622,2.8645,0,0,0,0,0,0,2.8185,2.8201,2.8224,2.8262,2.8278,2.8357,2.8333,2.8338,2.8362,2.836,2.8398,2.8402,2.8413,2.847,2.8481,2.8509,2.8465,2.8614,2.8618,2.8621,2.8642,2.8648,2.8653,0,0,0,0,0,2.818,2.8226,2.8225,2.8238,2.8307,2.8358,2.8367,2.8379,2.8364,2.8387,2.8406,2.8401,2.8498,2.8475,2.8487,2.8517,2.8613,2.8617,2.8621,2.8639,2.8647,2.8653,0,0,0,0,0,0,2.8189,2.8231,2.8231,2.8291,2.8321,2.8358,2.8387,2.8387,2.8421,2.8418,2.843,2.8439,2.8493,2.851,2.8483,2.8576,2.8554,2.856,2.8563,2.8571,2.8576,2.8572,2.8468,0,0,0,0,0,2.8198,2.8238,2.8272,2.8321,2.8337,2.8359,2.8382,2.8389,2.842,2.8433,2.8456,2.8486,2.8523,2.8547,2.8583,2.8643,2.8652,2.867,2.8676,2.868,2.8686,2.8721,2.873,2.8636,2.8636,2.8636,0,0,2.8217,2.8245,2.8269,2.8324,2.8348,2.8388,2.837,2.8412,2.8442,2.8439,2.8492,2.8509,2.8543,2.8601,2.8627,2.8617,2.8714,2.8685,2.8689,2.8693,2.8726,2.8735,2.8743,2.8639,2.8639,2.8638,0,0,2.8273,2.8298,2.8343,2.8368,2.8406,2.8421,2.8431,2.8468,2.848,2.8533,2.8532,2.8567,2.8631,2.8656,2.8677,2.8743,2.874,2.8754,2.8784,2.8818,2.8825,2.8832,2.8857,2.8866,2.8759,2.8759,2.8759,0,2.8292,2.8353,2.8366,2.841,2.8434,2.8434,2.848,2.8503,2.855,2.8567,2.8554,2.8636,2.8658,2.8723,2.8739,2.8755,2.8768,2.875,2.8824,2.883,2.8837,2.8861,2.887,2.8761,2.8761,2.8761,2.876,0,2.8376,2.8418,2.8449,2.8497,2.8525,2.8569,2.8588,2.8614,2.8618,2.8634,2.8689,2.8716,2.8758,2.8773,2.8777,2.8839,2.8831,2.8821,2.8799,2.8847,2.887,2.8879,2.8763,2.8763,2.8762,2.8762,0,0,2.844,2.8495,2.8506,2.8529,2.857,2.8603,2.8647,2.8689,2.8713,2.8744,2.8782,2.8837,2.8828,2.8852,2.8858,2.8888,2.894,2.8874,2.8875,2.8887,2.9011,2.9021,2.9031,2.8938,2.894,2.8941,2.9009,0,2.8502,2.8582,2.8595,2.8665,2.8705,2.8706,2.8744,2.8774,2.8789,2.8825,2.8841,2.8881,2.8865,2.888,2.8909,2.8928,2.8966,2.8923,2.8974,2.8976,2.8968,2.9043,2.9052,2.9116,2.9018,2.902,2.9021,0,2.8585,2.8622,2.8697,2.8734,2.8751,2.8786,2.8827,2.886,2.8894,2.8903,2.893,2.8933,2.8979,2.8954,2.9017,2.8988,2.9009,2.9021,2.9024,2.9031,2.9003,2.9054,2.9136,2.9146,2.9035,2.9034,2.9033,0,2.8627,2.8695,2.8749,2.8767,2.8812,2.8837,2.8856,2.8888,2.8913,2.8948,2.8965,2.9004,2.9026,2.9056,2.907,2.9049,2.9133,2.9108,2.9142,2.9142,2.9161,2.916,2.925,2.9171,2.9171,2.9171,2.9171,0,2.8696,2.8743,2.8769,2.8802,2.8854,2.8868,2.8918,2.8937,2.8965,2.9002,2.9003,2.9037,2.9052,2.9089,2.9099,2.9151,2.916,2.9169,2.9172,2.9171,2.917,2.9186,2.9183,2.9174,2.9173,2.9173,2.9172,0,2.8753,2.8772,2.8832,2.887,2.888,2.8917,2.8949,2.8981,2.8997,2.9043,2.9055,2.9079,2.9122,2.9138,2.919,2.9197,2.9258,2.9255,2.9247,2.9248,2.9283,2.928,2.9388,2.9404,2.9313,2.9313,2.9314,0,2.8797,2.8833,2.8875,2.8901,2.8922,2.8962,2.8989,2.9003,2.903,2.9072,2.9099,2.9142,2.9178,2.9246,2.9268,2.9308,2.9308,2.9343,2.9314,2.9312,2.9311,2.931,2.9314,2.9349,2.935,2.9351,2.9351,0,2.8873,2.8882,2.892,2.8963,2.8995,2.9029,2.9061,2.9082,2.9101,2.9131,2.9176,2.9204,2.9258,2.9301,2.9342,2.9361,2.936,2.936,2.937,2.9371,2.9365,2.9371,2.9264,2.9358,2.9357,2.9357,2.9356,2.9356,2.8927,2.896,2.8995,2.9039,2.9065,2.9096,2.9129,2.9149,2.9187,2.9233,2.9239,2.9287,2.932,2.9375,2.9396,2.9434,2.9425,2.9439,2.9443,2.9447,2.9451,2.9358,2.9441,2.9441,2.9441,2.9441,2.944,0,2.9005,2.9028,2.9068,2.9115,2.9149,2.9146,2.9182,2.9211,2.9254,2.9285,2.932,2.9372,2.9414,2.944,2.9482,2.9507,2.9508,2.9518,2.9517,2.9522,2.9456,2.9444,2.9517,2.9517,2.9517,2.9517,2.9517,2.9517,2.905,2.9107,2.9119,2.9188,2.921,2.9259,2.9281,2.9309,2.9334,2.9393,2.9429,2.9445,2.9474,2.9518,2.9557,2.9563,2.9579,2.9591,2.9596,2.9534,2.9527,2.9519,2.9508,2.9593,2.9594,2.966,2.966,2.9661]}]]